Vinton, IA

4:56 PM CDT on April 25, 2017 (GMT -0500)
Vinton-Veterans Memorial

Weather History for KVTI - May, 2013

Change the Weather History Date:

Monday, May 13, 2013

  Actual Average Record
Temperature  
Mean Temperature 50 °F -  
Max Temperature 70 °F 70 °F 89 °F (1956)
Min Temperature 32 °F 45 °F 32 °F (1953)
Degree Days  
Heating Degree Days 15    
Moisture  
Dew Point 33 °F    
Average Humidity 53    
Maximum Humidity 92    
Minimum Humidity 24    
Precipitation  
Precipitation 0.00 in - - ()
Sea Level Pressure  
Sea Level Pressure 30.06 in    
Wind  
Wind Speed 4 mph (South)    
Max Wind Speed 16 mph    
Max Gust Speed 25 mph    
Visibility 10 miles    
Events      
Averages and records for this station are not official NWS values.
T = Trace of Precipitation, MM = Missing Value Source: NWS Daily Summary

Daily Weather History Graph

Daily Weather History Graph

Search for Another Location

Airport or City:

Trip Planner

Search our weather history database for the weather conditions in past years. The results will help you decide how hot, cold, wet, or windy it might be!

Date:

Astronomy

May. 13, 2013 Rise Set
Actual Time 5:48 AM CDT 8:20 PM CDT
Civil Twilight 5:16 AM CDT 8:52 PM CDT
Nautical Twilight 4:37 AM CDT 9:32 PM CDT
Astronomical Twilight 3:52 AM CDT 10:17 PM CDT
Moon 8:34 AM CDT (5/13) 11:30 PM CDT (5/13)
Length of Visible Light 15h 35m
Length of Day
14h 31m
Waxing Crescent, 12% of the Moon is Illuminated
May 13
Waxing Crescent
May 17
First Quarter
May 24
Full
May 31
Last Quarter
Jun 8
New

Hourly Weather History & Observations

Time (CDT) Temp. Windchill Dew Point Humidity Pressure Visibility Wind Dir Wind Speed Gust Speed Precip Events Conditions
12:15 AM 38.5 °F - 31.1 °F 75% 30.14 in 10.0 mi Calm Calm - N/A   Clear
12:35 AM 38.5 °F 36.1 °F 30.7 °F 74% 30.14 in 10.0 mi South 3.5 mph - N/A   Clear
12:55 AM 37.4 °F - 30.4 °F 76% 30.14 in 10.0 mi Calm Calm - N/A   Clear
1:15 AM 37.4 °F - 31.3 °F 79% 30.15 in 10.0 mi Calm Calm - N/A   Clear
1:35 AM 37.4 °F - 29.8 °F 74% 30.15 in 10.0 mi Calm Calm - N/A   Clear
1:55 AM 37.4 °F - 30.4 °F 76% 30.14 in 10.0 mi Calm Calm - N/A   Clear
2:15 AM 34.9 °F 30.8 °F 29.7 °F 81% 30.14 in 10.0 mi SSW 4.6 mph - N/A   Clear
2:35 AM 35.4 °F - 32.5 °F 89% 30.14 in 7.0 mi Calm Calm - N/A   Clear
2:55 AM 34.9 °F - 30.7 °F 85% 30.15 in 10.0 mi Calm Calm - N/A   Clear
3:15 AM 35.1 °F - 31.5 °F 87% 30.15 in 10.0 mi Calm Calm - N/A   Clear
3:35 AM 34.9 °F - 31.6 °F 88% 30.14 in 10.0 mi Calm Calm - N/A   Clear
3:55 AM 34.9 °F - 32.0 °F 89% 30.14 in 10.0 mi Calm Calm - N/A   Clear
4:15 AM 34.9 °F - 31.5 °F 87% 30.13 in 10.0 mi Calm Calm - N/A   Clear
4:35 AM 34.9 °F - 31.8 °F 89% 30.13 in 10.0 mi Calm Calm - N/A   Clear
4:55 AM 32.4 °F - 29.1 °F 88% 30.13 in 10.0 mi Calm Calm - N/A   Clear
5:15 AM 33.1 °F - 30.7 °F 91% 30.13 in 10.0 mi Calm Calm - N/A   Clear
5:35 AM 34.2 °F - 31.3 °F 89% 30.13 in 10.0 mi Calm Calm - N/A   Clear
5:55 AM 32.7 °F - 29.1 °F 87% 30.14 in 10.0 mi Calm Calm - N/A   Clear
6:15 AM 32.4 °F - 30.2 °F 92% 30.15 in 7.0 mi Calm Calm - N/A   Clear
6:35 AM 34.7 °F - 32.2 °F 91% 30.15 in 7.0 mi Calm Calm - N/A   Clear
6:55 AM 35.1 °F - 32.0 °F 89% 30.16 in 5.0 mi Calm Calm - N/A   Clear
7:15 AM 37.4 °F - 33.6 °F 86% 30.16 in 10.0 mi Calm Calm - N/A   Clear
7:35 AM 40.1 °F - 34.2 °F 79% 30.16 in 10.0 mi Calm Calm - N/A   Clear
7:55 AM 42.4 °F - 34.3 °F 73% 30.16 in 10.0 mi Calm Calm - N/A   Clear
8:15 AM 47.5 °F - 34.7 °F 61% 30.17 in 10.0 mi South 3.5 mph - N/A   Clear
8:35 AM 48.4 °F - 30.6 °F 50% 30.17 in 10.0 mi SSW 4.6 mph - N/A   Clear
8:55 AM 52.7 °F - 29.8 °F 42% 30.17 in 10.0 mi South 3.5 mph - N/A   Clear
9:15 AM 52.7 °F - 28.6 °F 40% 30.16 in 10.0 mi South 4.6 mph - N/A   Clear
9:35 AM 55.0 °F - 29.7 °F 38% 30.16 in 10.0 mi South 3.5 mph - N/A   Clear
9:55 AM 57.6 °F - 29.8 °F 35% 30.16 in 10.0 mi SSW 4.6 mph - N/A   Clear
10:15 AM 58.1 °F - 27.5 °F 31% 30.15 in 10.0 mi WSW 5.8 mph - N/A   Clear
10:35 AM 59.7 °F - 25.3 °F 27% 30.14 in 10.0 mi SW 8.1 mph - N/A   Clear
10:55 AM 60.4 °F - 26.8 °F 28% 30.14 in 10.0 mi SW 8.1 mph - N/A   Clear
11:15 AM 62.6 °F - 25.9 °F 25% 30.13 in 10.0 mi SW 8.1 mph - N/A   Clear
11:35 AM 62.6 °F - 26.8 °F 26% 30.13 in 10.0 mi SSW 9.2 mph - N/A   Clear
11:55 AM 62.6 °F - 25.7 °F 25% 30.13 in 10.0 mi SW 9.2 mph - N/A   Clear
12:15 PM 65.5 °F - 27.7 °F 24% 30.12 in 10.0 mi SW 5.8 mph - N/A   Clear
12:35 PM 65.3 °F - 28.8 °F 25% 30.10 in 10.0 mi SW 6.9 mph - N/A   Clear
12:55 PM 67.6 °F - 28.9 °F 24% 30.10 in 10.0 mi SSW 11.5 mph - N/A   Clear
1:15 PM 67.6 °F - 29.5 °F 24% 30.09 in 10.0 mi SSW 12.7 mph 17.3 mph N/A   Clear
1:35 PM 67.6 °F - 30.4 °F 25% 30.08 in 10.0 mi South 11.5 mph - N/A   Clear
1:55 PM 67.6 °F - 29.8 °F 24% 30.07 in 10.0 mi South 12.7 mph 17.3 mph N/A   Clear
2:15 PM 67.6 °F - 31.6 °F 26% 30.05 in 10.0 mi South 5.8 mph - N/A   Clear
2:35 PM 67.6 °F - 32.9 °F 28% 30.05 in 10.0 mi SSW 9.2 mph - N/A   Clear
3:35 PM 67.6 °F - 32.4 °F 27% 30.01 in 10.0 mi South 13.8 mph 17.3 mph N/A   Clear
3:55 PM 67.8 °F - 33.3 °F 28% 29.99 in 10.0 mi South 13.8 mph 17.3 mph N/A   Clear
4:15 PM 67.6 °F - 33.3 °F 28% 29.99 in 5.0 mi South 15.0 mph 23.0 mph N/A   Haze
4:35 PM 68.7 °F - 34.7 °F 29% 29.98 in 10.0 mi South 12.7 mph 18.4 mph N/A   Clear
4:55 PM 68.9 °F - 34.3 °F 28% 29.97 in 10.0 mi South 16.1 mph 20.7 mph N/A   Clear
5:15 PM 68.9 °F - 34.7 °F 28% 29.96 in 10.0 mi South 16.1 mph 25.3 mph N/A   Clear
5:35 PM 68.2 °F - 35.8 °F 30% 29.96 in 10.0 mi South 13.8 mph 20.7 mph N/A   Clear
5:55 PM 67.6 °F - 35.6 °F 31% 29.95 in 10.0 mi South 16.1 mph 20.7 mph N/A   Clear
6:35 PM 67.6 °F - 37.0 °F 32% 29.93 in 10.0 mi South 12.7 mph 21.9 mph N/A   Clear
7:15 PM 67.6 °F - 38.5 °F 34% 29.93 in 10.0 mi South 11.5 mph 19.6 mph N/A   Clear
7:35 PM 67.6 °F - 40.5 °F 37% 29.94 in 10.0 mi South 10.4 mph - N/A   Clear
7:55 PM 67.5 °F - 43.2 °F 41% 29.94 in 10.0 mi South 8.1 mph - N/A   Clear
8:15 PM 65.3 °F - 42.6 °F 44% 29.93 in 10.0 mi South 10.4 mph - N/A   Clear
8:35 PM 62.6 °F - 41.5 °F 46% 29.93 in 10.0 mi South 12.7 mph 17.3 mph N/A   Clear
8:55 PM 62.6 °F - 41.4 °F 46% 29.92 in 10.0 mi South 11.5 mph 17.3 mph N/A   Clear
9:15 PM 60.8 °F - 40.5 °F 47% 29.92 in 10.0 mi South 12.7 mph 17.3 mph N/A   Clear
9:35 PM 60.1 °F - 41.0 °F 49% 29.91 in 10.0 mi South 12.7 mph 17.3 mph N/A   Clear
9:55 PM 59.9 °F - 41.7 °F 51% 29.91 in 10.0 mi South 13.8 mph 18.4 mph N/A   Clear
10:15 PM 59.5 °F - 41.2 °F 51% 29.91 in 10.0 mi South 12.7 mph 17.3 mph N/A   Clear
10:35 PM 59.0 °F - 41.0 °F 51% 29.90 in 10.0 mi South 12.7 mph 17.3 mph N/A   Clear
10:55 PM 57.6 °F - 40.8 °F 54% 29.89 in 10.0 mi South 11.5 mph 17.3 mph N/A   Clear
11:15 PM 57.6 °F - 40.6 °F 53% 29.88 in 10.0 mi South 11.5 mph - N/A   Clear
11:35 PM 57.6 °F - 41.0 °F 54% 29.88 in 10.0 mi South 11.5 mph 17.3 mph N/A   Clear
11:55 PM 57.6 °F - 40.8 °F 54% 29.86 in 10.0 mi South 12.7 mph - N/A   Clear